STARLINK-34337, 64223

Orbit data source: Space-Track

STARLINK-34337, 64223 is a payload satellite owned by SpaceX/Seattle (US) in LEO that was launched on Sat, 31 May 2025 UTC via an FALCON 9 launch vehicle from the Air Force Western Test Range (AFWTR). Payload-class satellites include a variety of spacecraft equipped with specific instruments for various scientific and technological missions. These include communications satellites like Starlink; space stations such as the ISS; scientific satellites like the Hubble; Earth observation satellites from companies like Planet Labs, Umbra, and HawkEye 360; GPS; miniature CubeSats for education and research; and military/defense satellites.

Loading next visibility...
Identifier
64223, 2025-117W
Orbit
LEO
Country
Flag of USUS
Related business
Manufacturer
SpaceX/Seattle
Mission
Operational Commercial Communications
Bus & Motor
STARLINK V2MO, Unknown motor
Mass
575 kg wet, ~530 kg dry
Launch date (UTC)
2025-05-31 (1 year ago)
Launch vehicle
FALCON 9
Launch site
Air Force Western Test Range (AFWTR)
Object type
Payload
Rocket body
Debris
Shape & HBR
Box + 2 Pan, 17.7 m
Radar Cross Section
36.964 m², Large (>1 m²)

Expand to show TLE details & history
Last TLE update: 1 day ago

TLE from 1 day ago
0 STARLINK-34337
1 64223U 25117W   26170.59376769  .00030306  00000-0  90402-3 0  9991
2 64223  53.1609 285.8513 0001302  68.1712 291.9429 15.34415283 60138
Epoch: 2026-06-19T14:15Z
TLE epoch observation values (Epoch: 2026-06-19T14:15:01.528Z)
Latitude
-0.00002°
Longitude
164.27441°
Altitude
463.227 km
Speed
7.636 km/s
True Right ascension
19h 03m 24s
True Declination
0° 00' 00"
Sunlit
Object was in full shadow at epoch
Visualization orbit readout
Latitude
Unknown
Longitude
Unknown
Altitude
Unknown
Speed
Unknown
Apparent Right ascension
Unknown
Apparent Declination
Unknown
Sunlit
N/A
Visualization observer readout
Local Sidereal Time
07:20:46
Azimuth
Unknown
Elevation
Unknown
Doppler factor
Unknown
Orbital elements
Apogee altitude
463.805 km
Perigee altitude
462.024 km
Semi-major axis
6,841.052 km
Eccentricity
0.00013
Inclination
53.1609°
RAAN
285.8513°
Arg. of periapsis
68.1712°
True anomaly
291.92906°
Mean anomaly
291.9429°
Eccentric anomaly
291.93598°
Mean motion
3.83583 °/min
Orbital period
93.85 mins
BSTAR
0.00090402
Loading maneuver chart data...
Computing Atmospheric mass density...
Loading historical data...
Loading historical data...
Loading historical data...
Loading historical data...
Loading historical data...
Loading historical data...
Loading historical data...

Documentation

Showing up to 5 results
|